Home   Weather   Bristol   Past weeks
Flag for United Kingdom

Past Weather in Bristol, England, United Kingdom — Yesterday and Last 2 Weeks

Now
45 °F

Sleet. Broken clouds.


Feels Like: 40 °F
Forecast: N/A
Wind: 8 mph from Southeast

Location: Bristol / Lulsgate

Current Time: Jan 19, 2019 at 2:37:49 pm

Latest Report: Jan 19, 2019 at 1:50 pm


Visibility: N/A

Pressure: 29.68 "Hg

Humidity: 100%

Dew Point: 45 °F

Location of BristolLocation

Past Weather in Bristol — Graph

°F

Bristol Temperature Yesterday

Maximum temperature yesterday: 43 °F (at 1:50 pm)
Minimum temperature yesterday: 34 °F (at 12:20 am)
Average temperature yesterday: 38 °F

High & Low Weather Summary for the Past Weeks

 TemperatureHumidityPressure
High48 °F (Jan 7, 12:20 pm)100% (Jan 4, 6:50 pm)30.77 "Hg (Jan 4, 6:50 pm)
Low30 °F (Jan 4, 6:50 pm)60% (Jan 17, 6:50 pm)29.59 "Hg (Jan 16, 11:50 am)
Average42 °F92%30.25 "Hg
* Reported Jan 4 1:20 pm — Jan 19 1:20 pm, Bristol. Weather by CustomWeather, © 2019

Note: Actual official high and low records may vary slightly from our data, if they occured in-between our weather recording intervals... More about our weather records

Advertising

Bristol Weather History for the Previous 24 Hours

Scroll right to see more
 ConditionsComfort  
Time TempWeatherWind HumidityBarometerVisibility
1:20 pm
Sat, Jan 19
45 °FBroken clouds.7 mph100%29.68 "HgN/A
12:50 pm43 °FBroken clouds.7 mph100%29.68 "HgN/A
12:20 pm43 °FSleet. Broken clouds.7 mph100%29.71 "HgN/A
11:50 am43 °FSleet. Partly sunny.7 mph100%29.71 "HgN/A
11:20 am43 °FSleet. Partly sunny.7 mph100%29.71 "HgN/A
10:50 am43 °FSleet. Partly sunny.9 mph100%29.71 "HgN/A
10:20 am41 °FDrizzle. Fog.8 mph100%29.71 "Hg1 mi
9:50 am41 °FLight rain. Broken clouds.8 mph100%29.71 "Hg2 mi
9:20 am41 °FPartly sunny.7 mph100%29.71 "HgN/A
8:50 am41 °FLight rain. Fog.8 mph100%29.68 "HgN/A
8:20 am41 °FLight rain. Fog.7 mph100%29.68 "HgN/A
7:50 am41 °FLight rain. Partly cloudy.7 mph100%29.68 "HgN/A
7:20 am41 °FLight rain. Overcast.7 mph100%29.68 "HgN/A
6:50 am41 °FLight rain. Passing clouds.8 mph100%29.68 "HgN/A
6:20 am41 °FLight rain. Passing clouds.9 mph100%29.68 "HgN/A
5:50 am41 °FPassing clouds.9 mph100%29.68 "HgN/A
5:20 am41 °FLight rain. Partly cloudy.9 mph100%29.68 "Hg6 mi
4:50 am41 °FLight rain. Mostly cloudy.9 mph100%29.68 "Hg4 mi
4:20 am41 °FMostly cloudy.9 mph100%29.71 "HgN/A
3:50 am41 °FPassing clouds.12 mph100%29.71 "HgN/A
3:20 am41 °FPassing clouds.10 mph100%29.71 "HgN/A
2:50 am41 °FPassing clouds.12 mph100%29.71 "HgN/A
2:20 am41 °FLow clouds.13 mph100%29.71 "HgN/A
1:20 am41 °FLight rain. Low clouds.12 mph100%29.74 "HgN/A
12:50 am41 °FLow clouds.13 mph100%29.74 "HgN/A
12:20 am39 °FMostly cloudy.14 mph100%29.74 "HgN/A
11:50 pm
Fri, Jan 18
39 °FLow clouds.13 mph100%29.77 "HgN/A
11:20 pm39 °FLow clouds.13 mph100%29.77 "HgN/A
10:50 pm39 °FMostly cloudy.15 mph100%29.77 "HgN/A
10:20 pm39 °FPartly cloudy.16 mph100%29.77 "HgN/A
9:50 pm39 °FPartly cloudy.17 mph100%29.77 "HgN/A
9:20 pm39 °FPassing clouds.17 mph93%29.77 "HgN/A
8:20 pm39 °FOvercast.15 mph93%29.77 "HgN/A
7:50 pm39 °FLight rain. Overcast.14 mph93%29.80 "HgN/A
7:20 pm39 °FSprinkles. Passing clouds.15 mph93%29.80 "HgN/A
6:50 pm39 °FSprinkles. Partly cloudy.15 mph87%29.80 "HgN/A
6:20 pm39 °FSprinkles. Passing clouds.14 mph87%29.80 "HgN/A
5:50 pm39 °FSprinkles. Passing clouds.15 mph87%29.80 "HgN/A
5:20 pm39 °FSprinkles. Passing clouds.15 mph87%29.80 "HgN/A
4:50 pm41 °FScattered showers. Passing clouds.18 mph76%29.80 "HgN/A
4:20 pm41 °FPartly sunny.16 mph70%29.80 "HgN/A
3:50 pm41 °FPartly sunny.14 mph76%29.83 "HgN/A
3:20 pm41 °FPartly sunny.18 mph70%29.83 "HgN/A
2:50 pm41 °FPartly sunny.15 mph76%29.83 "HgN/A
2:20 pm41 °FScattered clouds.18 mph70%29.83 "HgN/A
Weather by CustomWeather, © 2019

See weather overview